Wind_Speed
5 4 4 5 5 5 5 5 5 5 6 5 5 5 5 6 6 6 6 6 6 6 7 8 9 9 10 11 11 10 10 10 10 10 10 10 10 10 11 10 10 10 11 10
6 5 5 5 5 5 5 5 6 6 6 6 6 6 6 7 7 7 7 7 7 7 8 9 9 9 10 10 10 10 10 11 11 11 11 11 11 11 11 10 10 11 11 11
7 7 7 6 5 6 6 6 6 6 6 7 7 7 7 7 8 8 8 8 8 9 9 10 10 11 11 11 11 11 11 11 11 12 11 11 11 11 11 11 11 11 11 11
8 8 8 8 7 7 7 7 6 6 7 7 7 7 8 7 8 8 9 9 9 10 10 10 11 11 11 11 10 11 11 12 12 12 11 11 11 11 12 12 11 11 11 12
9 9 8 9 9 8 8 7 7 7 7 7 8 8 8 8 8 9 9 10 10 10 10 11 11 11 11 10 10 11 11 11 12 12 12 11 12 12 13 13 13 13 13 13
9 9 8 9 9 9 8 8 7 7 7 8 8 8 9 8 8 9 9 10 10 10 10 11 10 10 10 11 11 11 11 11 12 12 12 12 13 14 14 14 14 15 15 15
9 9 8 8 8 8 8 8 7 7 8 8 8 8 9 9 9 9 9 10 10 10 10 10 10 10 11 11 11 11 11 12 12 13 13 14 14 15 15 16 16 16 17 17
8 8 8 8 8 8 8 8 8 9 8 8 8 9 9 9 10 10 10 10 11 11 11 11 12 12 12 13 13 12 13 13 14 14 15 15 16 16 17 17 17 17 18 18
8 8 8 8 8 8 9 9 8 9 9 9 9 10 10 10 10 11 11 11 12 12 12 12 12 13 13 14 14 14 14 15 15 16 17 17 17 17 17 18 18 18 18 19
9 9 8 8 8 8 8 9 9 10 10 10 10 10 11 11 11 12 12 12 12 13 13 13 13 14 14 15 15 16 16 17 17 17 18 18 18 18 18 18 18 18 19 19
10 10 9 9 9 9 10 10 10 11 12 11 11 11 12 11 12 12 12 13 13 13 14 14 15 15 16 16 17 17 18 18 19 19 19 19 19 19 19 19 19 19 19 19
11 11 11 11 11 11 11 12 12 12 13 13 13 12 12 12 12 12 13 14 14 15 15 16 16 17 17 18 18 18 19 20 20 21 21 20 20 20 20 20 20 20 20 20
12 12 12 12 13 13 13 13 14 14 14 14 13 13 13 14 13 13 14 14 15 16 16 17 17 18 19 19 19 20 20 21 21 21 21 21 21 21 21 20 21 21 21 21
14 14 14 14 14 14 14 14 15 15 15 15 14 14 14 15 15 15 15 16 16 17 18 18 19 19 19 20 20 20 21 21 22 22 22 22 22 22 22 22 22 22 22 22
16 16 16 15 15 15 15 15 16 17 17 17 16 16 16 16 16 16 17 17 18 18 19 19 20 20 20 20 21 21 21 22 23 23 23 23 23 23 23 23 23 23 23 23
18 18 17 17 16 16 16 16 17 17 17 18 18 17 17 17 17 18 18 18 18 19 20 20 21 21 21 22 22 22 23 23 24 24 25 25 25 25 25 25 25 25 25 25
18 19 19 18 18 18 18 17 18 18 18 18 18 19 18 18 19 19 20 20 20 20 20 21 22 22 22 23 23 23 24 25 25 25 26 25 25 26 26 26 26 26 26 26
19 19 19 19 19 20 19 19 19 19 19 19 19 19 19 20 20 21 22 22 21 21 21 22 23 23 23 23 23 24 25 26 26 26 26 26 25 26 26 26 26 26 27 27
19 20 21 21 22 21 20 19 19 19 20 20 20 21 20 20 21 22 23 23 23 23 23 23 23 24 24 24 24 25 26 26 26 26 27 26 26 26 27 27 27 28 28 28
20 21 22 22 22 22 21 20 20 21 21 20 21 21 21 21 22 23 24 25 25 25 25 25 25 25 26 26 26 26 26 27 27 27 27 27 27 27 27 28 28 29 29 30
21 21 22 23 24 24 22 22 22 22 22 21 21 22 22 22 23 24 24 25 26 26 26 27 28 28 28 28 27 27 27 27 27 27 27 27 28 28 29 29 29 30 30 30
21 22 22 23 24 24 23 23 23 23 23 23 23 23 23 24 24 24 25 25 26 27 27 28 28 29 29 29 29 28 28 28 28 28 28 28 29 29 30 30 30 30 30 30
22 23 23 23 24 23 23 23 24 24 25 25 24 25 25 25 25 25 25 25 25 26 27 28 29 29 29 29 29 29 29 29 29 29 29 29 30 31 31 31 31 30 30 30
23 23 24 24 24 24 24 24 24 25 26 26 26 26 26 26 26 26 26 27 27 28 28 29 29 29 30 30 30 30 31 30 30 30 31 31 31 32 32 32 32 32 32 32
22 23 24 24 24 24 25 25 25 25 25 26 26 26 26 27 27 26 27 27 28 29 29 29 29 29 30 31 31 31 31 31 31 31 32 32 32 32 33 33 33 33 33 32
22 23 24 24 24 25 25 25 26 26 26 26 27 26 27 28 28 28 28 29 30 30 30 30 31 31 31 31 31 31 32 32 32 32 33 33 34 33 33 33 34 34 33 33
Wind_Direction
252 251 251 257 256 254 253 253 253 258 263 264 265 264 267 265 267 263 271 276 278 278 276 275 274 274 273 273 268 267 266 266 269 270 273 276 276 275 278 280 277 275 274 272
250 250 253 256 255 252 251 255 257 258 260 260 263 265 267 268 271 268 272 277 278 280 280 278 277 277 276 276 273 271 271 268 270 270 272 274 277 279 279 278 276 277 276 275
251 250 251 252 250 245 246 253 257 258 257 258 264 269 271 271 270 269 274 278 280 279 279 276 275 277 280 276 273 273 272 272 270 269 273 275 274 276 275 274 273 275 278 278
251 252 252 251 248 248 247 251 255 255 259 259 265 272 277 275 276 276 276 278 282 282 279 276 277 278 277 274 274 275 275 274 274 275 274 273 272 273 274 273 271 272 276 279
251 254 253 251 250 248 247 251 253 255 260 263 266 271 276 273 275 279 280 282 284 284 278 275 275 277 277 275 274 275 276 276 277 278 276 273 273 275 274 272 270 268 271 273
248 252 253 251 250 249 247 249 252 255 262 266 268 271 273 275 277 281 284 284 285 285 282 278 279 283 281 278 275 274 276 277 277 276 276 274 274 275 275 272 270 268 268 270
247 251 250 248 248 250 246 246 251 258 264 273 272 271 272 276 279 281 282 284 285 286 286 284 281 282 282 280 277 274 277 279 279 278 277 278 277 276 275 273 270 267 267 268
247 249 247 246 245 249 248 246 247 254 261 273 274 273 276 276 277 279 281 286 287 287 286 282 282 283 283 281 279 277 277 279 280 278 277 278 278 276 276 275 273 270 268 268
249 249 247 248 247 246 247 245 253 260 265 269 276 279 281 282 279 279 283 286 289 288 286 285 284 282 281 280 279 277 277 279 281 281 279 278 278 279 279 279 278 277 275 273
248 249 251 253 253 254 256 256 260 264 268 273 281 283 285 285 283 281 283 285 287 288 287 284 283 283 281 280 278 277 277 278 280 281 281 279 280 280 279 279 278 276 276 274
246 250 255 258 258 260 263 263 267 270 269 272 280 284 288 289 288 288 286 286 286 287 287 285 282 282 281 281 281 279 279 279 279 279 280 280 280 279 278 278 277 277 277 275
245 249 256 259 260 264 269 270 271 272 273 272 277 283 287 289 289 289 288 287 286 287 286 284 282 281 281 281 282 282 281 280 279 279 279 279 280 279 277 277 277 276 277 275
248 252 258 261 264 266 270 271 271 271 273 273 277 287 286 287 289 289 290 289 288 287 287 285 282 281 282 282 283 283 282 282 280 279 277 277 278 278 277 277 276 276 276 276
249 254 258 262 266 270 271 270 271 271 273 274 275 283 286 286 288 289 290 292 292 290 289 287 285 282 284 284 284 284 283 282 282 280 278 278 278 278 278 277 276 276 277 277
250 254 257 260 264 266 268 270 272 273 274 274 274 277 282 285 287 287 288 290 292 290 289 289 288 287 286 286 286 285 284 283 281 280 280 279 278 277 277 276 276 276 276 276
251 254 257 259 262 264 267 269 272 273 274 274 274 275 281 284 285 284 285 288 290 289 288 288 289 289 287 287 287 287 286 285 283 281 281 279 277 276 276 276 275 275 275 276
253 256 257 260 263 265 267 271 272 273 275 275 275 277 279 282 284 283 284 286 287 287 286 287 288 288 288 288 287 287 286 285 283 282 281 280 277 276 275 275 275 274 274 274
256 257 258 261 263 266 270 272 273 274 276 277 277 282 283 282 284 284 283 284 285 285 285 285 286 286 287 289 288 288 286 285 283 282 280 280 278 275 274 274 275 275 274 274
256 257 260 262 265 270 271 273 274 276 278 282 282 284 286 286 285 284 283 283 284 283 282 283 283 284 286 288 287 287 286 285 282 281 280 280 278 276 276 276 276 276 276 275
257 259 260 263 267 270 272 273 274 276 278 281 283 284 285 288 286 283 283 282 284 283 282 282 282 282 285 287 287 286 286 285 282 280 280 280 280 278 277 277 277 276 276 275
260 260 261 264 267 269 272 274 274 275 278 279 283 283 285 288 287 284 283 284 285 284 283 283 284 284 286 287 287 285 284 283 282 281 280 280 279 278 277 278 278 277 276 276
260 261 262 264 266 269 271 274 274 275 277 278 282 285 285 287 288 287 285 285 285 284 284 284 285 286 287 287 286 285 285 284 282 281 280 280 280 279 279 278 278 278 277 276
261 263 264 265 267 269 271 272 273 274 277 279 282 284 286 287 288 288 287 287 286 285 285 286 287 288 288 287 287 285 284 284 281 280 280 279 279 279 279 278 278 278 279 278
263 262 263 265 266 268 270 272 273 276 279 280 281 283 284 286 287 287 287 288 288 287 287 288 288 288 287 287 286 285 283 283 281 280 280 280 280 280 279 278 278 278 278 278
265 263 263 265 267 270 272 273 275 277 279 280 280 281 282 284 286 288 289 288 288 289 288 288 288 288 288 287 287 286 286 285 283 282 282 281 280 279 278 278 278 278 277 276
266 266 266 266 267 270 271 273 277 278 279 280 281 282 282 283 285 286 287 288 289 289 288 288 288 288 289 288 287 287 286 284 283 283 282 281 281 279 278 277 277 277 277 277
Height
5860 5861 5861 5861 5860 5861 5861 5861 5861 5861 5860 5861 5861 5861 5861 5861 5861 5861 5861 5861 5861 5861 5860 5860 5859 5859 5858 5858 5858 5858 5858 5858 5857 5857 5857 5856 5856 5855 5855 5854 5853 5853 5852 5852
5859 5859 5859 5859 5859 5859 5859 5859 5859 5859 5859 5859 5859 5860 5860 5860 5859 5859 5859 5859 5859 5859 5858 5858 5857 5856 5856 5856 5855 5855 5855 5855 5855 5854 5854 5854 5853 5853 5852 5851 5851 5850 5850 5849
5856 5858 5857 5857 5857 5857 5857 5858 5858 5858 5858 5857 5858 5858 5858 5858 5858 5858 5858 5857 5857 5857 5856 5855 5855 5854 5853 5853 5853 5853 5853 5852 5852 5851 5851 5851 5850 5850 5849 5849 5848 5847 5847 5846
5853 5854 5854 5855 5855 5855 5855 5856 5856 5856 5856 5856 5857 5857 5856 5856 5856 5856 5855 5855 5855 5854 5853 5853 5852 5851 5851 5850 5850 5850 5850 5849 5849 5848 5848 5848 5847 5847 5846 5846 5845 5845 5844 5843
5851 5851 5851 5852 5852 5853 5853 5854 5854 5854 5854 5854 5854 5854 5855 5854 5854 5854 5853 5852 5852 5851 5851 5850 5849 5849 5848 5848 5848 5847 5847 5846 5846 5845 5845 5845 5844 5844 5843 5842 5842 5841 5841 5840
5848 5848 5848 5849 5849 5850 5851 5852 5852 5852 5852 5852 5852 5852 5852 5851 5851 5851 5851 5850 5849 5849 5848 5847 5847 5846 5845 5845 5845 5844 5844 5843 5843 5842 5842 5841 5841 5840 5839 5838 5838 5837 5837 5836
5845 5845 5846 5846 5847 5847 5848 5850 5850 5850 5850 5850 5849 5849 5850 5849 5849 5848 5848 5847 5847 5846 5845 5845 5844 5843 5843 5842 5842 5841 5841 5840 5839 5839 5838 5837 5837 5836 5835 5834 5833 5833 5833 5832
5842 5843 5843 5844 5844 5845 5845 5847 5848 5848 5848 5848 5847 5846 5847 5846 5846 5845 5845 5844 5844 5843 5842 5842 5841 5840 5840 5839 5838 5838 5837 5836 5835 5835 5834 5833 5832 5831 5830 5829 5829 5828 5828 5827
5840 5841 5841 5841 5841 5842 5843 5843 5844 5845 5845 5845 5844 5844 5844 5843 5843 5842 5842 5841 5840 5840 5839 5838 5837 5837 5836 5835 5835 5834 5833 5832 5831 5830 5829 5828 5828 5827 5826 5825 5824 5823 5822 5822
5837 5838 5839 5839 5839 5840 5841 5841 5842 5842 5842 5842 5842 5841 5841 5840 5839 5839 5839 5838 5837 5836 5835 5834 5834 5833 5832 5831 5831 5830 5829 5828 5827 5826 5825 5823 5823 5822 5821 5820 5819 5818 5817 5816
5835 5836 5837 5837 5837 5837 5838 5838 5838 5838 5839 5839 5839 5841 5838 5837 5836 5836 5835 5834 5833 5832 5831 5830 5829 5829 5828 5827 5826 5825 5824 5823 5822 5821 5819 5818 5817 5816 5816 5815 5814 5813 5812 5811
5832 5833 5833 5834 5834 5834 5834 5835 5835 5836 5835 5835 5835 5838 5834 5833 5832 5831 5831 5830 5829 5828 5827 5826 5825 5824 5823 5822 5821 5820 5818 5817 5816 5815 5814 5813 5812 5811 5810 5809 5808 5807 5806 5805
5828 5830 5831 5831 5833 5832 5831 5831 5831 5831 5831 5831 5831 5834 5830 5829 5828 5827 5827 5826 5825 5824 5822 5821 5820 5819 5818 5817 5816 5814 5813 5812 5810 5809 5808 5807 5806 5805 5804 5803 5802 5801 5800 5799
5824 5826 5827 5828 5827 5827 5827 5827 5826 5826 5826 5826 5827 5827 5826 5825 5824 5823 5822 5821 5820 5819 5817 5816 5815 5814 5813 5811 5810 5809 5807 5806 5804 5803 5802 5801 5800 5799 5798 5797 5796 5795 5794 5793
5820 5821 5821 5822 5822 5822 5822 5822 5822 5822 5822 5822 5822 5822 5821 5820 5819 5818 5817 5816 5815 5813 5812 5811 5809 5808 5807 5805 5804 5802 5801 5799 5798 5797 5796 5794 5793 5792 5791 5790 5790 5789 5788 5787
5814 5816 5816 5817 5817 5817 5817 5817 5817 5817 5817 5817 5816 5817 5816 5815 5814 5813 5811 5810 5809 5808 5806 5805 5803 5802 5800 5799 5798 5796 5794 5793 5791 5790 5789 5787 5786 5785 5785 5784 5783 5782 5781 5780
5809 5810 5811 5812 5812 5812 5812 5813 5812 5812 5811 5811 5811 5812 5810 5809 5808 5807 5806 5804 5803 5802 5800 5799 5797 5795 5794 5792 5791 5789 5788 5786 5784 5783 5781 5780 5779 5778 5777 5776 5775 5775 5774 5773
5804 5804 5805 5806 5807 5807 5809 5807 5807 5806 5806 5806 5805 5805 5804 5802 5801 5800 5799 5798 5796 5795 5794 5792 5790 5789 5787 5786 5784 5782 5780 5779 5777 5775 5774 5773 5771 5770 5770 5769 5768 5767 5766 5765
5798 5798 5799 5800 5800 5800 5802 5801 5801 5800 5800 5800 5799 5798 5797 5795 5794 5794 5792 5791 5790 5788 5786 5785 5783 5782 5780 5778 5777 5775 5773 5771 5769 5768 5766 5765 5764 5763 5762 5761 5760 5759 5758 5757
5792 5792 5793 5793 5794 5794 5796 5795 5794 5795 5794 5794 5792 5792 5790 5789 5788 5787 5785 5783 5782 5781 5779 5778 5776 5774 5773 5771 5769 5767 5765 5763 5761 5760 5758 5757 5755 5754 5753 5752 5751 5750 5749 5748
5786 5786 5787 5787 5787 5787 5789 5788 5788 5789 5789 5787 5786 5785 5783 5782 5781 5780 5777 5776 5774 5773 5772 5770 5768 5766 5765 5763 5760 5758 5756 5755 5753 5751 5750 5748 5747 5746 5744 5743 5742 5741 5740 5739
5779 5780 5780 5780 5780 5783 5781 5781 5782 5781 5780 5779 5779 5777 5776 5775 5773 5772 5770 5768 5766 5765 5763 5762 5760 5758 5756 5754 5752 5749 5748 5746 5744 5742 5741 5739 5738 5737 5735 5734 5733 5731 5730 5729
5772 5773 5773 5774 5775 5774 5773 5773 5773 5773 5772 5772 5771 5770 5769 5767 5766 5764 5762 5761 5758 5757 5755 5753 5751 5749 5747 5744 5742 5740 5738 5736 5735 5733 5731 5730 5728 5727 5726 5724 5723 5722 5720 5719
5765 5766 5766 5766 5766 5766 5765 5765 5765 5765 5764 5764 5763 5762 5761 5759 5758 5756 5754 5753 5751 5749 5747 5744 5742 5740 5737 5735 5733 5731 5729 5727 5725 5724 5722 5720 5719 5717 5715 5714 5713 5712 5711 5709
5758 5758 5758 5759 5759 5758 5758 5758 5757 5757 5756 5755 5754 5753 5752 5751 5750 5748 5746 5744 5742 5740 5738 5736 5733 5730 5728 5726 5723 5721 5719 5717 5715 5713 5712 5710 5708 5706 5705 5704 5702 5701 5700 5699
5751 5751 5751 5752 5751 5751 5751 5750 5749 5749 5748 5747 5746 5745 5744 5742 5741 5739 5738 5736 5734 5731 5729 5726 5724 5721 5719 5716 5713 5711 5709 5707 5705 5703 5701 5699 5697 5695 5694 5693 5692 5690 5690 5688